owner,sensor,date,latitude,longitude,vertical_datum,sea_water_speed,direction_of_sea_water_velocity,upward_sea_water_velocity,qcFlag
Anadarko,ioos:station:wmo:42373:1,2022-05-01T00:08:00Z,27.3539,-94.6254,79.0,2.9,268.0,-9999.0,'111331111,111111111,999999991'
Anadarko,ioos:station:wmo:42373:1,2022-05-01T00:28:00Z,27.3539,-94.6254,79.0,4.6,276.2,-9999.0,'111111111,111111111,999999991'
Anadarko,ioos:station:wmo:42373:1,2022-05-01T00:48:00Z,27.3539,-94.6254,79.0,4.7,80.1,-9999.0,'111111111,111111111,999999991'
Anadarko,ioos:station:wmo:42373:1,2022-05-01T01:08:00Z,27.3539,-94.6254,79.0,2.7,109.8,-9999.0,'111331111,111111111,999999991'
Anadarko,ioos:station:wmo:42373:1,2022-05-01T01:28:00Z,27.3539,-94.6254,79.0,3.7,132.8,-9999.0,'111111111,111111111,999999991'
Anadarko,ioos:station:wmo:42373:1,2022-05-01T01:48:00Z,27.3539,-94.6254,79.0,5.3,125.8,-9999.0,'111111111,111111111,999999991'
Anadarko,ioos:station:wmo:42373:1,2022-05-01T02:08:00Z,27.3539,-94.6254,79.0,4.7,143.6,-9999.0,'111111111,111111111,999999991'
Anadarko,ioos:station:wmo:42373:1,2022-05-01T02:28:00Z,27.3539,-94.6254,79.0,4.8,147.0,-9999.0,'111111111,111111111,999999991'
Anadarko,ioos:station:wmo:42373:1,2022-05-01T02:48:00Z,27.3539,-94.6254,79.0,5.0,167.3,-9999.0,'111111111,111111111,999999991'
Anadarko,ioos:station:wmo:42373:1,2022-05-01T03:08:00Z,27.3539,-94.6254,79.0,5.4,167.2,-9999.0,'111111111,111111111,999999991'
Anadarko,ioos:station:wmo:42373:1,2022-05-01T03:28:00Z,27.3539,-94.6254,79.0,6.0,162.5,-9999.0,'111111111,111111111,999999991'
Anadarko,ioos:station:wmo:42373:1,2022-05-01T03:48:00Z,27.3539,-94.6254,79.0,6.1,136.3,-9999.0,'111111111,111111111,999999991'
Anadarko,ioos:station:wmo:42373:1,2022-05-01T04:08:00Z,27.3539,-94.6254,79.0,7.7,143.4,-9999.0,'111111111,111111111,999999991'
Anadarko,ioos:station:wmo:42373:1,2022-05-01T04:28:00Z,27.3539,-94.6254,79.0,8.8,145.2,-9999.0,'111111111,111111111,999999991'
Anadarko,ioos:station:wmo:42373:1,2022-05-01T04:48:00Z,27.3539,-94.6254,79.0,8.9,140.0,-9999.0,'111111111,111111111,999999991'
Anadarko,ioos:station:wmo:42373:1,2022-05-01T05:08:00Z,27.3539,-94.6254,79.0,10.9,147.3,-9999.0,'111111111,111111111,999999991'
Anadarko,ioos:station:wmo:42373:1,2022-05-01T05:28:00Z,27.3539,-94.6254,79.0,10.0,136.6,-9999.0,'111111111,111111111,999999991'
Anadarko,ioos:station:wmo:42373:1,2022-05-01T05:48:00Z,27.3539,-94.6254,79.0,10.2,134.2,-9999.0,'111111111,111111111,999999991'
Anadarko,ioos:station:wmo:42373:1,2022-05-01T06:08:00Z,27.3539,-94.6254,79.0,9.1,138.1,-9999.0,'111111111,111111111,999999991'
Anadarko,ioos:station:wmo:42373:1,2022-05-01T06:28:00Z,27.3539,-94.6254,79.0,10.2,143.8,-9999.0,'111111111,111111111,999999991'
Anadarko,ioos:station:wmo:42373:1,2022-05-01T06:48:00Z,27.3539,-94.6254,79.0,12.5,132.4,-9999.0,'111111111,111111111,999999991'
Anadarko,ioos:station:wmo:42373:1,2022-05-01T07:08:00Z,27.3539,-94.6254,79.0,13.1,132.2,-9999.0,'111111111,111111111,999999991'
Anadarko,ioos:station:wmo:42373:1,2022-05-01T07:28:00Z,27.3539,-94.6254,79.0,14.2,141.3,-9999.0,'111111111,111111111,999999991'
Anadarko,ioos:station:wmo:42373:1,2022-05-01T07:48:00Z,27.3539,-94.6254,79.0,14.6,134.2,-9999.0,'111111111,111111111,999999991'
Anadarko,ioos:station:wmo:42373:1,2022-05-01T08:08:00Z,27.3539,-94.6254,79.0,15.8,144.0,-9999.0,'111111111,111111111,999999991'
Anadarko,ioos:station:wmo:42373:1,2022-05-01T08:28:00Z,27.3539,-94.6254,79.0,16.5,143.1,-9999.0,'111111111,111111111,999999991'
Anadarko,ioos:station:wmo:42373:1,2022-05-01T08:48:00Z,27.3539,-94.6254,79.0,16.1,140.6,-9999.0,'111111111,111111111,999999991'
Anadarko,ioos:station:wmo:42373:1,2022-05-01T09:08:00Z,27.3539,-94.6254,79.0,13.5,142.2,-9999.0,'111111111,111111111,999999991'
Anadarko,ioos:station:wmo:42373:1,2022-05-01T09:28:00Z,27.3539,-94.6254,79.0,16.2,140.5,-9999.0,'111111111,111111111,999999991'
Anadarko,ioos:station:wmo:42373:1,2022-05-01T09:48:00Z,27.3539,-94.6254,79.0,16.3,146.8,-9999.0,'111111111,111111111,999999991'
Anadarko,ioos:station:wmo:42373:1,2022-05-01T10:08:00Z,27.3539,-94.6254,79.0,17.5,148.6,-9999.0,'111111111,111111111,999999991'
Anadarko,ioos:station:wmo:42373:1,2022-05-01T10:28:00Z,27.3539,-94.6254,79.0,16.5,144.9,-9999.0,'111111111,111111111,999999991'
Anadarko,ioos:station:wmo:42373:1,2022-05-01T10:48:00Z,27.3539,-94.6254,79.0,15.6,145.7,-9999.0,'111111111,111111111,999999991'
Anadarko,ioos:station:wmo:42373:1,2022-05-01T11:08:00Z,27.3539,-94.6254,79.0,15.3,142.5,-9999.0,'111111111,111111111,999999991'
Anadarko,ioos:station:wmo:42373:1,2022-05-01T11:28:00Z,27.3539,-94.6254,79.0,14.7,149.2,-9999.0,'111111111,111111111,999999991'
Anadarko,ioos:station:wmo:42373:1,2022-05-01T11:48:00Z,27.3539,-94.6254,79.0,13.3,148.2,-9999.0,'111111111,111111111,999999991'
Anadarko,ioos:station:wmo:42373:1,2022-05-01T12:08:00Z,27.3539,-94.6254,79.0,11.9,157.8,-9999.0,'111111111,111111111,999999991'
Anadarko,ioos:station:wmo:42373:1,2022-05-01T12:28:00Z,27.3539,-94.6254,79.0,10.6,150.1,-9999.0,'111111111,111111111,999999991'
Anadarko,ioos:station:wmo:42373:1,2022-05-01T12:48:00Z,27.3539,-94.6254,79.0,10.8,158.2,-9999.0,'111111111,111111111,999999991'
Anadarko,ioos:station:wmo:42373:1,2022-05-01T13:08:00Z,27.3539,-94.6254,79.0,10.9,163.6,-9999.0,'111111111,111111111,999999991'
Anadarko,ioos:station:wmo:42373:1,2022-05-01T13:28:00Z,27.3539,-94.6254,79.0,8.0,168.4,-9999.0,'111111111,111111111,999999991'
Anadarko,ioos:station:wmo:42373:1,2022-05-01T13:48:00Z,27.3539,-94.6254,79.0,7.1,174.4,-9999.0,'111111111,111111111,999999991'
Anadarko,ioos:station:wmo:42373:1,2022-05-01T14:08:00Z,27.3539,-94.6254,79.0,8.4,173.1,-9999.0,'111111111,111111111,999999991'
Anadarko,ioos:station:wmo:42373:1,2022-05-01T14:28:00Z,27.3539,-94.6254,79.0,6.1,162.8,-9999.0,'111111111,111111111,999999991'
Anadarko,ioos:station:wmo:42373:1,2022-05-01T14:48:00Z,27.3539,-94.6254,79.0,5.0,173.2,-9999.0,'111111111,111111111,999999991'
Anadarko,ioos:station:wmo:42373:1,2022-05-01T15:08:00Z,27.3539,-94.6254,79.0,5.8,160.9,-9999.0,'111111111,111111111,999999991'
Anadarko,ioos:station:wmo:42373:1,2022-05-01T15:28:00Z,27.3539,-94.6254,79.0,9.1,167.9,-9999.0,'111111111,111111111,999999991'
Anadarko,ioos:station:wmo:42373:1,2022-05-01T15:48:00Z,27.3539,-94.6254,79.0,8.8,173.4,-9999.0,'111111111,111111111,999999991'
Anadarko,ioos:station:wmo:42373:1,2022-05-01T16:08:00Z,27.3539,-94.6254,79.0,7.7,174.1,-9999.0,'111111111,111111111,999999991'
Anadarko,ioos:station:wmo:42373:1,2022-05-01T16:28:00Z,27.3539,-94.6254,79.0,3.8,130.8,-9999.0,'111111111,111111111,999999991'
Anadarko,ioos:station:wmo:42373:1,2022-05-01T16:48:00Z,27.3539,-94.6254,79.0,4.4,177.4,-9999.0,'111111111,111111111,999999991'
Anadarko,ioos:station:wmo:42373:1,2022-05-01T17:08:00Z,27.3539,-94.6254,79.0,3.2,244.2,-9999.0,'111111111,111111111,999999991'
Anadarko,ioos:station:wmo:42373:1,2022-05-01T17:28:00Z,27.3539,-94.6254,79.0,4.8,260.3,-9999.0,'111111111,111111111,999999991'
Anadarko,ioos:station:wmo:42373:1,2022-05-01T17:48:00Z,27.3539,-94.6254,79.0,4.6,232.9,-9999.0,'111111111,111111111,999999991'
Anadarko,ioos:station:wmo:42373:1,2022-05-01T18:08:00Z,27.3539,-94.6254,79.0,4.2,234.8,-9999.0,'111111111,111111111,999999991'
Anadarko,ioos:station:wmo:42373:1,2022-05-01T18:28:00Z,27.3539,-94.6254,79.0,4.1,240.9,-9999.0,'111111111,111111111,999999991'
Anadarko,ioos:station:wmo:42373:1,2022-05-01T18:48:00Z,27.3539,-94.6254,79.0,5.3,255.7,-9999.0,'111111111,111111111,999999991'
Anadarko,ioos:station:wmo:42373:1,2022-05-01T19:08:00Z,27.3539,-94.6254,79.0,7.1,272.4,-9999.0,'111111111,111111111,999999991'
Anadarko,ioos:station:wmo:42373:1,2022-05-01T19:28:00Z,27.3539,-94.6254,79.0,5.8,273.9,-9999.0,'111111111,111111111,999999991'
Anadarko,ioos:station:wmo:42373:1,2022-05-01T19:48:00Z,27.3539,-94.6254,79.0,4.2,286.7,-9999.0,'111111111,111111111,999999991'
Anadarko,ioos:station:wmo:42373:1,2022-05-01T20:08:00Z,27.3539,-94.6254,79.0,4.1,281.3,-9999.0,'111111111,111111111,999999991'
Anadarko,ioos:station:wmo:42373:1,2022-05-01T20:28:00Z,27.3539,-94.6254,79.0,4.6,263.8,-9999.0,'111111111,111111111,999999991'
Anadarko,ioos:station:wmo:42373:1,2022-05-01T20:48:00Z,27.3539,-94.6254,79.0,2.9,285.9,-9999.0,'111331111,111111111,999999991'
Anadarko,ioos:station:wmo:42373:1,2022-05-01T21:08:00Z,27.3539,-94.6254,79.0,4.0,240.3,-9999.0,'111111111,111111111,999999991'
Anadarko,ioos:station:wmo:42373:1,2022-05-01T21:28:00Z,27.3539,-94.6254,79.0,2.6,245.4,-9999.0,'111331111,111111111,999999991'
Anadarko,ioos:station:wmo:42373:1,2022-05-01T21:48:00Z,27.3539,-94.6254,79.0,2.1,264.6,-9999.0,'111331111,111111111,999999991'
Anadarko,ioos:station:wmo:42373:1,2022-05-01T22:08:00Z,27.3539,-94.6254,79.0,1.6,206.6,-9999.0,'111331111,111111111,999999991'
Anadarko,ioos:station:wmo:42373:1,2022-05-01T22:28:00Z,27.3539,-94.6254,79.0,1.8,243.4,-9999.0,'111331111,111111111,999999991'
Anadarko,ioos:station:wmo:42373:1,2022-05-01T22:48:00Z,27.3539,-94.6254,79.0,3.0,300.0,-9999.0,'111111111,111111111,999999991'
Anadarko,ioos:station:wmo:42373:1,2022-05-01T23:08:00Z,27.3539,-94.6254,79.0,3.6,219.4,-9999.0,'111111111,111111111,999999991'
Anadarko,ioos:station:wmo:42373:1,2022-05-01T23:28:00Z,27.3539,-94.6254,79.0,4.4,208.3,-9999.0,'111111111,111111111,999999991'
Anadarko,ioos:station:wmo:42373:1,2022-05-01T23:48:00Z,27.3539,-94.6254,79.0,4.3,246.4,-9999.0,'111111111,111111111,999999991'
Anadarko,ioos:station:wmo:42373:1,2022-05-02T00:08:00Z,27.3539,-94.6254,79.0,3.8,244.8,-9999.0,'111111111,111111111,999999991'
Anadarko,ioos:station:wmo:42373:1,2022-05-02T00:28:00Z,27.3539,-94.6254,79.0,1.9,264.0,-9999.0,'111331111,111111111,999999991'
Anadarko,ioos:station:wmo:42373:1,2022-05-02T00:48:00Z,27.3539,-94.6254,79.0,2.2,249.1,-9999.0,'111331111,111111111,999999991'
Anadarko,ioos:station:wmo:42373:1,2022-05-02T01:08:00Z,27.3539,-94.6254,79.0,2.2,92.6,-9999.0,'111331111,111111111,999999991'
Anadarko,ioos:station:wmo:42373:1,2022-05-02T01:28:00Z,27.3539,-94.6254,79.0,2.9,323.5,-9999.0,'111331111,111111111,999999991'
Anadarko,ioos:station:wmo:42373:1,2022-05-02T01:48:00Z,27.3539,-94.6254,79.0,3.8,125.4,-9999.0,'111111111,111111111,999999991'
Anadarko,ioos:station:wmo:42373:1,2022-05-02T02:08:00Z,27.3539,-94.6254,79.0,4.4,107.2,-9999.0,'111111111,111111111,999999991'
Anadarko,ioos:station:wmo:42373:1,2022-05-02T02:28:00Z,27.3539,-94.6254,79.0,5.7,95.0,-9999.0,'111111111,111111111,999999991'
Anadarko,ioos:station:wmo:42373:1,2022-05-02T02:48:00Z,27.3539,-94.6254,79.0,6.7,103.8,-9999.0,'111111111,111111111,999999991'
Anadarko,ioos:station:wmo:42373:1,2022-05-02T03:08:00Z,27.3539,-94.6254,79.0,5.4,101.7,-9999.0,'111111111,111111111,999999991'
Anadarko,ioos:station:wmo:42373:1,2022-05-02T03:28:00Z,27.3539,-94.6254,79.0,7.2,102.1,-9999.0,'111111111,111111111,999999991'
Anadarko,ioos:station:wmo:42373:1,2022-05-02T03:48:00Z,27.3539,-94.6254,79.0,6.4,102.7,-9999.0,'111111111,111111111,999999991'
Anadarko,ioos:station:wmo:42373:1,2022-05-02T04:08:00Z,27.3539,-94.6254,79.0,7.1,107.9,-9999.0,'111111111,111111111,999999991'
Anadarko,ioos:station:wmo:42373:1,2022-05-02T04:28:00Z,27.3539,-94.6254,79.0,9.3,110.2,-9999.0,'111111111,111111111,999999991'
Anadarko,ioos:station:wmo:42373:1,2022-05-02T04:48:00Z,27.3539,-94.6254,79.0,11.2,110.9,-9999.0,'111111111,111111111,999999991'
Anadarko,ioos:station:wmo:42373:1,2022-05-02T05:08:00Z,27.3539,-94.6254,79.0,10.4,115.6,-9999.0,'111111111,111111111,999999991'
Anadarko,ioos:station:wmo:42373:1,2022-05-02T05:28:00Z,27.3539,-94.6254,79.0,11.0,120.5,-9999.0,'111111111,111111111,999999991'
Anadarko,ioos:station:wmo:42373:1,2022-05-02T05:48:00Z,27.3539,-94.6254,79.0,12.5,123.6,-9999.0,'111111111,111111111,999999991'
Anadarko,ioos:station:wmo:42373:1,2022-05-02T06:08:00Z,27.3539,-94.6254,79.0,11.7,129.8,-9999.0,'111111111,111111111,999999991'
Anadarko,ioos:station:wmo:42373:1,2022-05-02T06:28:00Z,27.3539,-94.6254,79.0,12.6,131.8,-9999.0,'111111111,111111111,999999991'
Anadarko,ioos:station:wmo:42373:1,2022-05-02T06:48:00Z,27.3539,-94.6254,79.0,12.8,135.9,-9999.0,'111111111,111111111,999999991'
Anadarko,ioos:station:wmo:42373:1,2022-05-02T07:08:00Z,27.3539,-94.6254,79.0,14.3,141.0,-9999.0,'111111111,111111111,999999991'
Anadarko,ioos:station:wmo:42373:1,2022-05-02T07:28:00Z,27.3539,-94.6254,79.0,14.3,140.1,-9999.0,'111111111,111111111,999999991'
Anadarko,ioos:station:wmo:42373:1,2022-05-02T07:48:00Z,27.3539,-94.6254,79.0,12.7,141.4,-9999.0,'111111111,111111111,999999991'
Anadarko,ioos:station:wmo:42373:1,2022-05-02T08:08:00Z,27.3539,-94.6254,79.0,14.5,132.5,-9999.0,'111111111,111111111,999999991'
Anadarko,ioos:station:wmo:42373:1,2022-05-02T08:28:00Z,27.3539,-94.6254,79.0,13.7,134.4,-9999.0,'111111111,111111111,999999991'
Anadarko,ioos:station:wmo:42373:1,2022-05-02T08:48:00Z,27.3539,-94.6254,79.0,13.5,127.5,-9999.0,'111111111,111111111,999999991'
Anadarko,ioos:station:wmo:42373:1,2022-05-02T09:08:00Z,27.3539,-94.6254,79.0,16.2,134.2,-9999.0,'111111111,111111111,999999991'
Anadarko,ioos:station:wmo:42373:1,2022-05-02T09:28:00Z,27.3539,-94.6254,79.0,15.4,131.6,-9999.0,'111111111,111111111,999999991'
Anadarko,ioos:station:wmo:42373:1,2022-05-02T09:48:00Z,27.3539,-94.6254,79.0,14.2,137.6,-9999.0,'111111111,111111111,999999991'
Anadarko,ioos:station:wmo:42373:1,2022-05-02T10:08:00Z,27.3539,-94.6254,79.0,12.9,135.6,-9999.0,'111111111,111111111,999999991'
Anadarko,ioos:station:wmo:42373:1,2022-05-02T10:28:00Z,27.3539,-94.6254,79.0,13.5,132.3,-9999.0,'111111111,111111111,999999991'
Anadarko,ioos:station:wmo:42373:1,2022-05-02T10:48:00Z,27.3539,-94.6254,79.0,15.3,134.2,-9999.0,'111111111,111111111,999999991'
Anadarko,ioos:station:wmo:42373:1,2022-05-02T11:08:00Z,27.3539,-94.6254,79.0,16.4,135.0,-9999.0,'111111111,111111111,999999991'
Anadarko,ioos:station:wmo:42373:1,2022-05-02T11:28:00Z,27.3539,-94.6254,79.0,16.8,136.2,-9999.0,'111111111,111111111,999999991'
Anadarko,ioos:station:wmo:42373:1,2022-05-02T11:48:00Z,27.3539,-94.6254,79.0,12.7,130.8,-9999.0,'111111111,111111111,999999991'
Anadarko,ioos:station:wmo:42373:1,2022-05-02T12:08:00Z,27.3539,-94.6254,79.0,10.0,135.4,-9999.0,'111111111,111111111,999999991'
Anadarko,ioos:station:wmo:42373:1,2022-05-02T12:28:00Z,27.3539,-94.6254,79.0,11.4,129.7,-9999.0,'111111111,111111111,999999991'
Anadarko,ioos:station:wmo:42373:1,2022-05-02T12:48:00Z,27.3539,-94.6254,79.0,9.8,133.8,-9999.0,'111111111,111111111,999999991'
Anadarko,ioos:station:wmo:42373:1,2022-05-02T13:08:00Z,27.3539,-94.6254,79.0,10.1,136.2,-9999.0,'111111111,111111111,999999991'
Anadarko,ioos:station:wmo:42373:1,2022-05-02T13:28:00Z,27.3539,-94.6254,79.0,9.2,141.6,-9999.0,'111111111,111111111,999999991'
Anadarko,ioos:station:wmo:42373:1,2022-05-02T13:48:00Z,27.3539,-94.6254,79.0,9.6,157.4,-9999.0,'111111111,111111111,999999991'
Anadarko,ioos:station:wmo:42373:1,2022-05-02T14:08:00Z,27.3539,-94.6254,79.0,8.0,149.9,-9999.0,'111111111,111111111,999999991'
Anadarko,ioos:station:wmo:42373:1,2022-05-02T14:28:00Z,27.3539,-94.6254,79.0,9.7,154.2,-9999.0,'111111111,111111111,999999991'
Anadarko,ioos:station:wmo:42373:1,2022-05-02T14:48:00Z,27.3539,-94.6254,79.0,9.0,157.1,-9999.0,'111111111,111111111,999999991'
Anadarko,ioos:station:wmo:42373:1,2022-05-02T15:08:00Z,27.3539,-94.6254,79.0,10.1,147.6,-9999.0,'111111111,111111111,999999991'
Anadarko,ioos:station:wmo:42373:1,2022-05-02T15:28:00Z,27.3539,-94.6254,79.0,7.5,137.2,-9999.0,'111111111,111111111,999999991'
Anadarko,ioos:station:wmo:42373:1,2022-05-02T15:48:00Z,27.3539,-94.6254,79.0,9.0,144.9,-9999.0,'111111111,111111111,999999991'
Anadarko,ioos:station:wmo:42373:1,2022-05-02T16:08:00Z,27.3539,-94.6254,79.0,6.3,149.3,-9999.0,'111111111,111111111,999999991'
Anadarko,ioos:station:wmo:42373:1,2022-05-02T16:28:00Z,27.3539,-94.6254,79.0,4.8,183.6,-9999.0,'111111111,111111111,999999991'
Anadarko,ioos:station:wmo:42373:1,2022-05-02T16:48:00Z,27.3539,-94.6254,79.0,6.6,170.4,-9999.0,'111111111,111111111,999999991'
Anadarko,ioos:station:wmo:42373:1,2022-05-02T17:08:00Z,27.3539,-94.6254,79.0,8.8,172.1,-9999.0,'111111111,111111111,999999991'
Anadarko,ioos:station:wmo:42373:1,2022-05-02T17:28:00Z,27.3539,-94.6254,79.0,5.6,188.3,-9999.0,'111111111,111111111,999999991'
Anadarko,ioos:station:wmo:42373:1,2022-05-02T17:48:00Z,27.3539,-94.6254,79.0,6.6,188.7,-9999.0,'111111111,111111111,999999991'
Anadarko,ioos:station:wmo:42373:1,2022-05-02T18:08:00Z,27.3539,-94.6254,79.0,7.0,206.2,-9999.0,'111111111,111111111,999999991'
Anadarko,ioos:station:wmo:42373:1,2022-05-02T18:28:00Z,27.3539,-94.6254,79.0,3.7,205.9,-9999.0,'111111111,111111111,999999991'
Anadarko,ioos:station:wmo:42373:1,2022-05-02T18:48:00Z,27.3539,-94.6254,79.0,8.0,216.9,-9999.0,'111111111,111111111,999999991'
Anadarko,ioos:station:wmo:42373:1,2022-05-02T19:08:00Z,27.3539,-94.6254,79.0,7.4,218.4,-9999.0,'111111111,111111111,999999991'
Anadarko,ioos:station:wmo:42373:1,2022-05-02T19:28:00Z,27.3539,-94.6254,79.0,6.3,219.2,-9999.0,'111111111,111111111,999999991'
Anadarko,ioos:station:wmo:42373:1,2022-05-02T19:48:00Z,27.3539,-94.6254,79.0,6.9,216.2,-9999.0,'111111111,111111111,999999991'
Anadarko,ioos:station:wmo:42373:1,2022-05-02T20:08:00Z,27.3539,-94.6254,79.0,7.1,217.0,-9999.0,'111111111,111111111,999999991'
Anadarko,ioos:station:wmo:42373:1,2022-05-02T20:28:00Z,27.3539,-94.6254,79.0,5.9,238.2,-9999.0,'111111111,111111111,999999991'
Anadarko,ioos:station:wmo:42373:1,2022-05-02T20:48:00Z,27.3539,-94.6254,79.0,5.9,257.4,-9999.0,'111111111,111111111,999999991'
Anadarko,ioos:station:wmo:42373:1,2022-05-02T21:08:00Z,27.3539,-94.6254,79.0,4.8,268.8,-9999.0,'111111111,111111111,999999991'
Anadarko,ioos:station:wmo:42373:1,2022-05-02T21:28:00Z,27.3539,-94.6254,79.0,3.7,277.7,-9999.0,'111111111,111111111,999999991'
Anadarko,ioos:station:wmo:42373:1,2022-05-02T21:48:00Z,27.3539,-94.6254,79.0,6.1,329.7,-9999.0,'111111111,111111111,999999991'
Anadarko,ioos:station:wmo:42373:1,2022-05-02T22:08:00Z,27.3539,-94.6254,79.0,4.9,295.5,-9999.0,'111111111,111111111,999999991'
Anadarko,ioos:station:wmo:42373:1,2022-05-02T22:28:00Z,27.3539,-94.6254,79.0,4.3,298.9,-9999.0,'111111111,111111111,999999991'
Anadarko,ioos:station:wmo:42373:1,2022-05-02T22:48:00Z,27.3539,-94.6254,79.0,4.3,272.7,-9999.0,'111111111,111111111,999999991'
Anadarko,ioos:station:wmo:42373:1,2022-05-02T23:08:00Z,27.3539,-94.6254,79.0,5.1,284.9,-9999.0,'111111111,111111111,999999991'
Anadarko,ioos:station:wmo:42373:1,2022-05-02T23:28:00Z,27.3539,-94.6254,79.0,3.7,316.1,-9999.0,'111111111,111111111,999999991'
Anadarko,ioos:station:wmo:42373:1,2022-05-02T23:48:00Z,27.3539,-94.6254,79.0,6.8,300.0,-9999.0,'111111111,111111111,999999991'
Anadarko,ioos:station:wmo:42373:1,2022-05-03T00:08:00Z,27.3539,-94.6254,79.0,4.7,305.4,-9999.0,'111111111,111111111,999999991'
Anadarko,ioos:station:wmo:42373:1,2022-05-03T00:28:00Z,27.3539,-94.6254,79.0,5.0,234.7,-9999.0,'111111111,111111111,999999991'
Anadarko,ioos:station:wmo:42373:1,2022-05-03T00:48:00Z,27.3539,-94.6254,79.0,2.5,158.6,-9999.0,'111331111,111111111,999999991'
Anadarko,ioos:station:wmo:42373:1,2022-05-03T01:08:00Z,27.3539,-94.6254,79.0,4.0,87.1,-9999.0,'111111111,111111111,999999991'
Anadarko,ioos:station:wmo:42373:1,2022-05-03T01:28:00Z,27.3539,-94.6254,79.0,3.2,0.0,-9999.0,'111111111,111441111,999999991'
Anadarko,ioos:station:wmo:42373:1,2022-05-03T01:48:00Z,27.3539,-94.6254,79.0,3.8,15.1,-9999.0,'111111111,111111111,999999991'
Anadarko,ioos:station:wmo:42373:1,2022-05-03T02:08:00Z,27.3539,-94.6254,79.0,2.3,70.0,-9999.0,'111331111,111111111,999999991'
Anadarko,ioos:station:wmo:42373:1,2022-05-03T02:28:00Z,27.3539,-94.6254,79.0,4.7,76.6,-9999.0,'111111111,111111111,999999991'
Anadarko,ioos:station:wmo:42373:1,2022-05-03T02:48:00Z,27.3539,-94.6254,79.0,5.3,74.6,-9999.0,'111111111,111111111,999999991'
Anadarko,ioos:station:wmo:42373:1,2022-05-03T03:08:00Z,27.3539,-94.6254,79.0,5.9,77.4,-9999.0,'111111111,111111111,999999991'
Anadarko,ioos:station:wmo:42373:1,2022-05-03T03:28:00Z,27.3539,-94.6254,79.0,6.4,59.8,-9999.0,'111111111,111111111,999999991'
Anadarko,ioos:station:wmo:42373:1,2022-05-03T03:48:00Z,27.3539,-94.6254,79.0,7.5,59.7,-9999.0,'111111111,111111111,999999991'
Anadarko,ioos:station:wmo:42373:1,2022-05-03T04:08:00Z,27.3539,-94.6254,79.0,8.0,63.4,-9999.0,'111111111,111111111,999999991'
Anadarko,ioos:station:wmo:42373:1,2022-05-03T04:28:00Z,27.3539,-94.6254,79.0,7.7,75.8,-9999.0,'111111111,111111111,999999991'
Anadarko,ioos:station:wmo:42373:1,2022-05-03T04:48:00Z,27.3539,-94.6254,79.0,9.2,76.9,-9999.0,'111111111,111111111,999999991'
Anadarko,ioos:station:wmo:42373:1,2022-05-03T05:08:00Z,27.3539,-94.6254,79.0,9.9,81.3,-9999.0,'111111111,111111111,999999991'
Anadarko,ioos:station:wmo:42373:1,2022-05-03T05:28:00Z,27.3539,-94.6254,79.0,11.3,83.4,-9999.0,'111111111,111111111,999999991'
Anadarko,ioos:station:wmo:42373:1,2022-05-03T05:48:00Z,27.3539,-94.6254,79.0,9.6,90.0,-9999.0,'111111111,111111111,999999991'
Anadarko,ioos:station:wmo:42373:1,2022-05-03T06:08:00Z,27.3539,-94.6254,79.0,13.5,94.7,-9999.0,'111111111,111111111,999999991'
Anadarko,ioos:station:wmo:42373:1,2022-05-03T06:28:00Z,27.3539,-94.6254,79.0,12.0,95.3,-9999.0,'111111111,111111111,999999991'
Anadarko,ioos:station:wmo:42373:1,2022-05-03T06:48:00Z,27.3539,-94.6254,79.0,12.1,90.0,-9999.0,'111111111,111111111,999999991'
Anadarko,ioos:station:wmo:42373:1,2022-05-03T07:08:00Z,27.3539,-94.6254,79.0,13.3,100.0,-9999.0,'111111111,111111111,999999991'
Anadarko,ioos:station:wmo:42373:1,2022-05-03T07:28:00Z,27.3539,-94.6254,79.0,12.3,100.8,-9999.0,'111111111,111111111,999999991'
Anadarko,ioos:station:wmo:42373:1,2022-05-03T07:48:00Z,27.3539,-94.6254,79.0,12.5,109.2,-9999.0,'111111111,111111111,999999991'
Anadarko,ioos:station:wmo:42373:1,2022-05-03T08:08:00Z,27.3539,-94.6254,79.0,14.4,107.8,-9999.0,'111111111,111111111,999999991'
Anadarko,ioos:station:wmo:42373:1,2022-05-03T08:28:00Z,27.3539,-94.6254,79.0,12.8,104.5,-9999.0,'111111111,111111111,999999991'
Anadarko,ioos:station:wmo:42373:1,2022-05-03T08:48:00Z,27.3539,-94.6254,79.0,13.9,103.7,-9999.0,'111111111,111111111,999999991'
Anadarko,ioos:station:wmo:42373:1,2022-05-03T09:08:00Z,27.3539,-94.6254,79.0,13.3,107.1,-9999.0,'111111111,111111111,999999991'
Anadarko,ioos:station:wmo:42373:1,2022-05-03T09:28:00Z,27.3539,-94.6254,79.0,13.1,106.4,-9999.0,'111111111,111111111,999999991'
Anadarko,ioos:station:wmo:42373:1,2022-05-03T09:48:00Z,27.3539,-94.6254,79.0,11.5,108.3,-9999.0,'111111111,111111111,999999991'
Anadarko,ioos:station:wmo:42373:1,2022-05-03T10:08:00Z,27.3539,-94.6254,79.0,13.9,110.3,-9999.0,'111111111,111111111,999999991'
Anadarko,ioos:station:wmo:42373:1,2022-05-03T10:28:00Z,27.3539,-94.6254,79.0,14.7,107.0,-9999.0,'111111111,111111111,999999991'
Anadarko,ioos:station:wmo:42373:1,2022-05-03T10:48:00Z,27.3539,-94.6254,79.0,13.5,114.1,-9999.0,'111111111,111111111,999999991'
Anadarko,ioos:station:wmo:42373:1,2022-05-03T11:08:00Z,27.3539,-94.6254,79.0,15.5,114.7,-9999.0,'111111111,111111111,999999991'
Anadarko,ioos:station:wmo:42373:1,2022-05-03T11:28:00Z,27.3539,-94.6254,79.0,18.4,115.4,-9999.0,'111111111,111111111,999999991'
Anadarko,ioos:station:wmo:42373:1,2022-05-03T11:48:00Z,27.3539,-94.6254,79.0,17.6,126.2,-9999.0,'111111111,111111111,999999991'
Anadarko,ioos:station:wmo:42373:1,2022-05-03T12:08:00Z,27.3539,-94.6254,79.0,15.9,125.3,-9999.0,'111111111,111111111,999999991'
Anadarko,ioos:station:wmo:42373:1,2022-05-03T12:28:00Z,27.3539,-94.6254,79.0,13.7,125.8,-9999.0,'111111111,111111111,999999991'
Anadarko,ioos:station:wmo:42373:1,2022-05-03T12:48:00Z,27.3539,-94.6254,79.0,13.2,126.3,-9999.0,'111111111,111111111,999999991'
Anadarko,ioos:station:wmo:42373:1,2022-05-03T13:08:00Z,27.3539,-94.6254,79.0,15.1,129.4,-9999.0,'111111111,111111111,999999991'
Anadarko,ioos:station:wmo:42373:1,2022-05-03T13:28:00Z,27.3539,-94.6254,79.0,14.9,133.6,-9999.0,'111111111,111111111,999999991'
Anadarko,ioos:station:wmo:42373:1,2022-05-03T13:48:00Z,27.3539,-94.6254,79.0,12.9,132.5,-9999.0,'111111111,111111111,999999991'